ZB2YN-13 Weather Reports


time (UTC)temp
C
wind
direction
speed
KPH
gust
KPH
rain 1hr
cm
rain 24hr
cm
rain mn
cm
humidity
%
barometer
mb
20260508130006 19 345 11.3 22.5 0.00 0.00 0.00 73 1004.1
20260508120006 20 343 9.7 17.7 0.00 0.00 0.00 67 1004.4
20260508110005 19 346 6.4 11.3 0.00 0.00 0.00 68 1004.5
20260508100005 18 347 8.0 14.5 0.00 0.00 0.00 71 1004.6
20260508090005 17 348 8.0 14.5 0.00 0.00 0.00 74 1004.7
20260508080005 16 345 6.4 12.9 0.00 0.00 0.00 82 1004.5
20260508070006 16 297 3.2 9.7 0.00 0.00 0.00 81 1004.3
20260508060005 16 220 1.6 3.2 0.00 0.00 0.00 81 1004.1
20260508050005 16 101 0.0 3.2 0.00 0.00 0.00 80 1003.1
20260508040005 16 98 3.2 9.7 0.00 0.00 0.00 79 1002.9
20260508030006 16 358 1.6 4.8 0.00 0.00 0.00 78 1003.6
20260508020006 15 325 0.0 1.6 0.00 0.00 0.00 82 1003.5
20260508010005 16 250 0.0 3.2 0.00 0.00 0.00 78 1003.6
20260508000005 16 91 0.0 1.6 0.00 0.00 0.00 73 1004.0
20260507230005 16 195 1.6 1.6 0.00 0.00 0.00 77 1004.9
20260507220006 16 169 0.0 3.2 0.00 0.00 0.00 76 1004.9
20260507210006 17 187 1.6 3.2 0.00 0.00 0.00 76 1004.8
20260507200005 17 240 3.2 6.4 0.00 0.00 0.00 70 1004.1
20260507190006 19 220 3.2 6.4 0.00 0.00 0.00 58 1003.2
20260507180005 21 187 4.8 9.7 0.00 0.00 0.00 53 1002.9
20260507170006 22 193 4.8 11.3 0.00 0.00 0.00 52 1002.7
20260507160006 22 175 3.2 6.4 0.00 0.00 0.00 48 1002.4
20260507150006 23 202 3.2 12.9 0.00 0.00 0.00 47 1002.7
20260507140006 23 197 4.8 11.3 0.00 0.00 0.00 50 1003.1